Regional Weather Roundup
Issued by NWS

Home | Current Version | Previous Version | Graphics & Text | Print | Product List | Glossary On
Versions: 1 2 3 4 5 6 7 8 9 10 11 12 13 14 15 16 17 18 19 20 21 22 23 24 25 26 27 28 29 30 31 32 33 34 35 36 37 38 39 40 41 42 43 44 45 46 47 48 49 50
000
ASUS43 KDMX 231101
RWRIA

WEATHER ROUNDUP FOR IOWA
NATIONAL WEATHER SERVICE DES MOINES IA
500 AM CST THU FEB 23 2017

NOTE: "FAIR" INDICATES FEW OR NO CLOUDS BELOW 12,000 FEET WITH NO
SIGNIFICANT WEATHER AND/OR OBSTRUCTIONS TO VISIBILITY.

* - THESE STATIONS ARE NOT NWS STATIONS...THUS NOT UNDER NWS
QUALITY CONTROL.  THEY ALSO DO NOT REPORT WEATHER SUCH
AS PRECIPITATION OR FOG.

IAZ001>003-012>014-020>022-031>034-043>046-231200-
   NORTHWEST IOWA

CITY           SKY/WX    TMP DP  RH WIND       PRES   REMARKS
CARROLL *      CLOUDY    36  36 100 N17       29.83R WCI  25
CHEROKEE *     CLOUDY    34  33  96 NE13G18   29.85S WCI  25
DENISON *      CLOUDY    36  34  93 NE14G25   29.80R WCI  27
LE MARS *      CLOUDY    34  32  93 NE10G17   29.87R WCI  26
ORANGE CITY *  CLOUDY    34  32  93 NE9G17    29.85S WCI  26
SHELDON *      CLOUDY    32  32 100 NE17      29.82F WCI  21
SIOUX CITY     CLOUDY    37  32  82 NE16      29.85S WCI  28
SPENCER        CLOUDY    34  32  92 N16       29.85S WCI  24
STORM LAKE *   CLOUDY    34  32  93 NE21      29.83R WCI  22
$$

IAZ055>058-069>071-079>083-090>094-231200-
   SOUTHWEST IOWA

CITY           SKY/WX    TMP DP  RH WIND       PRES   REMARKS
ATLANTIC *     CLOUDY    37  37 100 NE17G25   29.79R WCI  28
CLARINDA *     MOCLDY    41  37  87 NE15      29.79R
COUNCIL BLFS * CLOUDY    37  37 100 N20       29.79R WCI  27
CRESTON *      CLOUDY    37  37 100 NE13G21   29.78R WCI  29
HARLAN  *      CLOUDY    36  36 100 NE17G26   29.83S WCI  25
LAMONI         MOCLDY    41  38  89 NE15G23   29.73F
RED OAK *      CLOUDY    39  37  93 NE15      29.79R WCI  31
SHENANDOAH *   PTCLDY    39  37  93 NE17      29.78R WCI  30
$$

IAZ047>049-059>061-072>074-084-231200-
   CENTRAL IOWA

CITY           SKY/WX    TMP DP  RH WIND       PRES   REMARKS
AMES           CLOUDY    38  37  97 NE12      29.81S WCI  30
ANKENY *       CLOUDY    39  36  87 N10G17    29.82R WCI  32
BOONE *        CLOUDY    36  36 100 N21       29.79S WCI  24
CHARITON *     CLOUDY    39  37  93 N15       29.77S WCI  31
DES MOINES     CLOUDY    40  36  86 N15G22    29.81R WCI  32
GRINNELL*      CLOUDY    39  37  89 N15G25    29.78F WCI  31
KNOXVILLE *    CLOUDY    41  37  87 N10       29.80R
MARSHALLTOWN   CLOUDY    39  37  92 N14       29.79F WCI  31
NEWTON *       CLOUDY    39  37  93 N14G24    29.79R WCI  31
PELLA *        CLOUDY    40  38  91 N8        29.82R WCI  35
PERRY *        CLOUDY    37  36  95 N14G22    29.81S WCI  28
$$

IAZ004>006-015-016-023>025-035-036-231200-
   NORTH CENTRAL IOWA

CITY           SKY/WX    TMP DP  RH WIND       PRES   REMARKS
ALGONA *       CLOUDY    36  34  93 N9G16     29.84R WCI  29
CLARION *      CLOUDY    37  37 100 N13       29.82R WCI  29
ESTHERVILLE    CLOUDY    33  32  96 N14       29.86R WCI  23
FORT DODGE *   CLOUDY    36  30  80 N14       29.84R WCI  27
MASON CITY     CLOUDY    36  33  89 N12       29.81F WCI  28
FOREST CITY *  CLOUDY    34  32  93 N15G21    29.80R WCI  24
WEBSTER CITY * CLOUDY    37  34  87 N15G22    29.80S WCI  28
IOWA FALLS *   CLOUDY    39  35  87 N8        29.81F WCI  33
$$

IAZ007>011-017>019-026>030-037>042-050>054-066-231200-
   NORTHEAST IOWA

CITY           SKY/WX    TMP DP  RH WIND       PRES   REMARKS
CEDAR RAPIDS   CLOUDY    42  39  89 N15G24    29.77R
CHARLES CITY * CLOUDY    37  37 100 N17       29.79F WCI  28
CLINTON *      CLOUDY    42  40  92 N13       29.74F
DECORAH *      CLOUDY    39  36  87 NW14      29.78R WCI  31
DUBUQUE        PTCLDY    39  37  92 NW8       29.76R WCI  33
MONTICELLO *   CLOUDY    43  39  87 NW8       29.77R
OELWEIN *      CLOUDY    41  39  93 N7G13     29.79R
WATERLOO       CLOUDY    40  36  86 NW6       29.81R
$$

IAZ064-065-067-068-078-231200-
   EAST CENTRAL IOWA

CITY           SKY/WX    TMP DP  RH WIND       PRES   REMARKS
DAVENPORT      CLOUDY    43  41  93 N9        29.75S
IOWA CITY      CLOUDY    45  39  79 N18G24    29.78R
MUSCATINE *    CLOUDY    45  41  87 N9        29.77S
QUAD CITIES    CLOUDY   N/A N/A N/A N9        29.74F
$$

IAZ062-063-075>077-085>089-095>099-231200-
   SOUTHEAST IOWA

CITY           SKY/WX    TMP DP  RH WIND       PRES   REMARKS
BURLINGTON     CLEAR     43  41  93 N8        29.73S
FAIRFIELD *    CLOUDY    41  39  93 N16G24    29.76R
KEOKUK *       CLOUDY    45  41  87 N6        29.73S
CENTERVILLE *  MOCLDY    37  37 100 N13       29.77R WCI  29
OTTUMWA        CLOUDY    41  39  93 N16G25    29.76S
WASHINGTON *   CLOUDY    43  41  93 N14       29.78R
$$

ABBREVIATIONS USED IN REMARKS
   TC - TEMPERATURES IN CELSIUS
  WCI - WIND CHILL INDEX
   HX - HEAT INDEX
  VSB - VISIBILITY
$$





USA.gov is the U.S. government's official web portal to all federal, state and local government web resources and services.